| time (UTC) | temp F | wind direction | speed MPH | gust MPH | rain 1hr in | rain 24hr in | rain mn in | humidity % | barometer mb |
| 20260506145005 | 76 | 233 | 3.0 | 14.0 | 0.00 | 0.00 | 0.00 | 43 | 1010.5 |
| 20260506144004 | 76 | 198 | 8.0 | 13.0 | 0.00 | 0.00 | 0.00 | 42 | 1010.5 |
| 20260506143005 | 77 | 129 | 9.0 | 16.0 | 0.00 | 0.00 | 0.00 | 42 | 1010.8 |
| 20260506142005 | 77 | 101 | 13.0 | 16.0 | 0.00 | 0.00 | 0.00 | 42 | 1010.5 |
| 20260506141005 | 77 | 128 | 9.0 | 18.0 | 0.00 | 0.00 | 0.00 | 41 | 1010.8 |
| 20260506140005 | 77 | 126 | 10.0 | 18.0 | 0.00 | 0.00 | 0.00 | 41 | 1010.8 |
| 20260506135005 | 78 | 167 | 6.0 | 10.0 | 0.00 | 0.00 | 0.00 | 40 | 1011.2 |
| 20260506134005 | 78 | 146 | 7.0 | 12.0 | 0.00 | 0.00 | 0.00 | 40 | 1011.2 |
| 20260506132005 | 76 | 177 | 7.0 | 10.0 | 0.00 | 0.00 | 0.00 | 42 | 1011.5 |
| 20260506131004 | 75 | 163 | 2.0 | 13.0 | 0.00 | 0.00 | 0.00 | 42 | 1011.2 |
| 20260506125004 | 76 | 152 | 10.0 | 18.0 | 0.00 | 0.00 | 0.00 | 41 | 1011.9 |
| 20260506123005 | 75 | 157 | 8.0 | 12.0 | 0.00 | 0.00 | 0.00 | 41 | 1012.2 |
| 20260506122005 | 76 | 129 | 3.0 | 6.0 | 0.00 | 0.00 | 0.00 | 43 | 1012.2 |
| 20260506121004 | 75 | 111 | 1.0 | 6.0 | 0.00 | 0.00 | 0.00 | 44 | 1012.5 |
| 20260506120005 | 74 | 84 | 3.0 | 9.0 | 0.00 | 0.00 | 0.00 | 44 | 1012.5 |
| 20260506113004 | 74 | 90 | 10.0 | 14.0 | 0.00 | 0.00 | 0.00 | 45 | 1013.2 |
| 20260506112005 | 74 | 111 | 2.0 | 10.0 | 0.00 | 0.00 | 0.00 | 46 | 1012.9 |
| 20260506110005 | 74 | 121 | 5.0 | 14.0 | 0.00 | 0.00 | 0.00 | 46 | 1013.2 |
| 20260506105005 | 74 | 176 | 7.0 | 15.0 | 0.00 | 0.00 | 0.00 | 48 | 1013.2 |
| 20260506104004 | 74 | 65 | 8.0 | 15.0 | 0.00 | 0.00 | 0.00 | 47 | 1013.2 |
| 20260506103005 | 73 | 153 | 7.0 | 12.0 | 0.00 | 0.00 | 0.00 | 47 | 1013.5 |
| 20260506101004 | 74 | 20 | 5.0 | 10.0 | 0.00 | 0.00 | 0.00 | 50 | 1013.9 |
| 20260506100005 | 74 | 149 | 6.0 | 10.0 | 0.00 | 0.00 | 0.00 | 51 | 1014.2 |
| 20260506095005 | 73 | 107 | 5.0 | 15.0 | 0.00 | 0.00 | 0.00 | 49 | 1013.9 |
| 20260506094005 | 74 | 139 | 6.0 | 15.0 | 0.00 | 0.00 | 0.00 | 47 | 1014.2 |
| 20260506093005 | 73 | 135 | 7.0 | 12.0 | 0.00 | 0.00 | 0.00 | 47 | 1014.2 |
| 20260506091005 | 75 | 85 | 2.0 | 5.0 | 0.00 | 0.00 | 0.00 | 49 | 1014.2 |
| 20260506090005 | 76 | 58 | 3.0 | 7.0 | 0.00 | 0.00 | 0.00 | 47 | 1014.6 |
| 20260506085004 | 76 | 358 | 3.0 | 5.0 | 0.00 | 0.00 | 0.00 | 46 | 1014.2 |
| 20260506084004 | 77 | 34 | 3.0 | 5.0 | 0.00 | 0.00 | 0.00 | 44 | 1014.2 |
| 20260506083005 | 76 | 233 | 2.0 | 3.0 | 0.00 | 0.00 | 0.00 | 46 | 1014.2 |
| 20260506082004 | 74 | 124 | 1.0 | 5.0 | 0.00 | 0.00 | 0.00 | 48 | 1014.6 |
| 20260506081005 | 73 | 56 | 3.0 | 6.0 | 0.00 | 0.00 | 0.00 | 48 | 1014.6 |
| 20260506072005 | 74 | 94 | 1.0 | 2.0 | 0.00 | 0.00 | 0.00 | 48 | 1014.9 |
| 20260506062004 | 68 | 46 | 3.0 | 5.0 | 0.00 | 0.00 | 0.00 | 55 | 1015.2 |
| 20260506061005 | 67 | 256 | 1.0 | 2.0 | 0.00 | 0.00 | 0.00 | 57 | 1014.9 |
| 20260506051004 | 65 | 306 | 3.0 | 5.0 | 0.00 | 0.00 | 0.00 | 62 | 1014.9 |
| 20260506045005 | 63 | 70 | 0.0 | 3.0 | 0.00 | 0.00 | 0.00 | 66 | 1014.9 |
| 20260506042004 | 62 | 189 | 2.0 | 6.0 | 0.00 | 0.00 | 0.00 | 69 | 1014.8 |
| 20260506040005 | 61 | 61 | 2.0 | 3.0 | 0.00 | 0.00 | 0.00 | 70 | 1014.6 |
| 20260506035005 | 61 | 37 | 2.0 | 6.0 | 0.00 | 0.00 | 0.00 | 71 | 1014.2 |
| 20260506032004 | 62 | 233 | 2.0 | 3.0 | 0.00 | 0.00 | 0.00 | 71 | 1014.6 |
| 20260506031004 | 62 | 210 | 2.0 | 3.0 | 0.00 | 0.00 | 0.00 | 71 | 1014.6 |
| 20260506030004 | 62 | 10 | 3.0 | 3.0 | 0.00 | 0.00 | 0.00 | 71 | 1014.6 |
| 20260506025005 | 62 | 178 | 2.0 | 5.0 | 0.00 | 0.00 | 0.00 | 71 | 1014.6 |
| 20260506021005 | 63 | 12 | 3.0 | 6.0 | 0.00 | 0.00 | 0.00 | 71 | 1014.2 |
| 20260506020005 | 63 | 332 | 2.0 | 7.0 | 0.00 | 0.00 | 0.00 | 70 | 1013.9 |
| 20260506015004 | 63 | 282 | 3.0 | 7.0 | 0.00 | 0.00 | 0.00 | 69 | 1013.9 |
| 20260506014005 | 63 | 54 | 1.0 | 6.0 | 0.00 | 0.00 | 0.00 | 69 | 1013.9 |
| 20260506013005 | 64 | 219 | 3.0 | 6.0 | 0.00 | 0.00 | 0.00 | 68 | 1013.9 |
| 20260506012005 | 64 | 52 | 3.0 | 7.0 | 0.00 | 0.00 | 0.00 | 67 | 1013.9 |
| 20260506011005 | 64 | 226 | 3.0 | 7.0 | 0.00 | 0.00 | 0.00 | 65 | 1013.5 |
| 20260506010004 | 65 | 106 | 3.0 | 5.0 | 0.00 | 0.00 | 0.00 | 65 | 1013.5 |
| 20260506004005 | 64 | 262 | 2.0 | 5.0 | 0.00 | 0.00 | 0.00 | 64 | 1013.5 |
| 20260506002004 | 64 | 328 | 2.0 | 3.0 | 0.00 | 0.00 | 0.00 | 62 | 1013.2 |
| 20260506001005 | 64 | 202 | 2.0 | 3.0 | 0.00 | 0.00 | 0.00 | 61 | 1013.2 |
| 20260506000005 | 64 | 125 | 1.0 | 1.0 | 0.00 | 0.00 | 0.00 | 61 | 1012.9 |
| 20260505235005 | 64 | 80 | 1.0 | 1.0 | 0.00 | 0.00 | 0.00 | 60 | 1012.9 |
| 20260505234005 | 63 | 57 | 1.0 | 1.0 | 0.00 | 0.00 | 0.00 | 60 | 1012.5 |
| 20260505233005 | 63 | 83 | 0.0 | 2.0 | 0.00 | 0.00 | 0.00 | 60 | 1012.5 |
| 20260505232005 | 63 | 101 | 0.0 | 1.0 | 0.00 | 0.00 | 0.00 | 61 | 1012.5 |
| 20260505231004 | 63 | 103 | 0.0 | 1.0 | 0.00 | 0.00 | 0.00 | 60 | 1012.2 |
| 20260505230005 | 63 | 26 | 1.0 | 1.0 | 0.00 | 0.00 | 0.00 | 61 | 1012.5 |
| 20260505225005 | 62 | 30 | 0.0 | 0.0 | 0.00 | 0.00 | 0.00 | 62 | 1012.2 |
| 20260505223005 | 63 | 357 | 1.0 | 2.0 | 0.00 | 0.00 | 0.00 | 59 | 1012.2 |
| 20260505222005 | 63 | 126 | 1.0 | 2.0 | 0.00 | 0.00 | 0.00 | 59 | 1012.2 |
| 20260505221004 | 64 | 94 | 0.0 | 1.0 | 0.00 | 0.00 | 0.00 | 58 | 1012.2 |
| 20260505220005 | 64 | 107 | 0.0 | 2.0 | 0.00 | 0.00 | 0.00 | 58 | 1011.9 |
| 20260505215005 | 64 | 208 | 2.0 | 2.0 | 0.00 | 0.00 | 0.00 | 57 | 1011.8 |
| 20260505213004 | 65 | 141 | 3.0 | 8.0 | 0.00 | 0.00 | 0.00 | 56 | 1011.7 |
| 20260505211005 | 65 | 131 | 2.0 | 3.0 | 0.00 | 0.00 | 0.00 | 55 | 1011.5 |
| 20260505205005 | 66 | 108 | 1.0 | 3.0 | 0.00 | 0.00 | 0.00 | 55 | 1011.5 |
| 20260505201004 | 67 | 264 | 3.0 | 7.0 | 0.00 | 0.00 | 0.00 | 53 | 1011.2 |
| 20260505200005 | 67 | 131 | 3.0 | 7.0 | 0.00 | 0.00 | 0.00 | 53 | 1010.8 |
| 20260505195005 | 67 | 78 | 0.0 | 5.0 | 0.00 | 0.00 | 0.00 | 53 | 1011.2 |
| 20260505194005 | 67 | 124 | 3.0 | 5.0 | 0.00 | 0.00 | 0.00 | 52 | 1010.8 |
| 20260505192005 | 67 | 171 | 5.0 | 8.0 | 0.00 | 0.00 | 0.00 | 52 | 1010.8 |
| 20260505185005 | 68 | 142 | 7.0 | 13.0 | 0.00 | 0.00 | 0.00 | 50 | 1010.5 |
| 20260505182005 | 69 | 210 | 3.0 | 9.0 | 0.00 | 0.00 | 0.00 | 48 | 1010.8 |
| 20260505180005 | 70 | 49 | 2.0 | 7.0 | 0.00 | 0.00 | 0.00 | 47 | 1010.5 |
| 20260505175004 | 71 | 127 | 6.0 | 9.0 | 0.00 | 0.00 | 0.00 | 46 | 1010.5 |
| 20260505174005 | 71 | 181 | 6.0 | 12.0 | 0.00 | 0.00 | 0.00 | 45 | 1010.5 |
| 20260505173005 | 72 | 160 | 7.0 | 14.0 | 0.00 | 0.00 | 0.00 | 45 | 1010.5 |
| 20260505165004 | 73 | 147 | 7.0 | 13.0 | 0.00 | 0.00 | 0.00 | 44 | 1010.8 |
| 20260505164004 | 74 | 109 | 7.0 | 13.0 | 0.00 | 0.00 | 0.00 | 43 | 1010.8 |
| 20260505163005 | 74 | 214 | 5.0 | 21.0 | 0.00 | 0.00 | 0.00 | 43 | 1010.8 |
| 20260505162005 | 74 | 265 | 6.0 | 7.0 | 0.00 | 0.00 | 0.00 | 43 | 1010.8 |
| 20260505153005 | 76 | 119 | 6.0 | 14.0 | 0.00 | 0.00 | 0.00 | 41 | 1011.2 |
| 20260505152005 | 77 | 251 | 10.0 | 17.0 | 0.00 | 0.00 | 0.00 | 40 | 1010.8 |